Location: Newark
(49.8969°N, 3.3422°E)
Time: 14:11:29
(UTC+00:00)

Envisat - Pass Details

Date: 06 December 2019
Orbit: 764 x 766 km, 98.1° (Epoch: 18 January)

Event Time Altitude Azimuth Distance (km) Brightness Sun altitude
Rises 18:25:18 0° 191° (S) 3,221 6.5 -24.6°
Reaches altitude 10° 18:27:48 10° 201° (SSW) 2,300 5.8 -25.0°
Maximum altitude 18:32:21 33° 265° (W) 1,274 4.7 -25.7°
Drops below altitude 10° 18:36:57 10° 329° (NNW) 2,316 5.8 -26.4°
Sets 18:39:30 0° 339° (NNW) 3,247 6.5 -26.8°
